Location: Moscow
(55.7500°N, 37.5830°E)
Time: 10:59:38
(UTC+03:00)

A-11 Canister half - Pass Details

Date: 30 November 2021
Orbit: 1516 x 1684 km, 47.2° (Epoch: 24 January)

Event Time Altitude Azimuth Distance (km) Brightness Sun altitude
Rises 13:56:03 0° 279° (W) 4,899 11.8 9.8°
Reaches altitude 10° 13:59:29 10° 272° (W) 3,926 11.5 9.6°
Maximum altitude 14:08:20 37° 210° (SSW) 2,424 11.4 9.1°
Drops below altitude 10° 14:17:14 10° 149° (SSE) 3,937 11.6 8.5°
Sets 14:20:41 0° 141° (SE) 4,914 12.0 8.3°
